Weather History for Copper Harbor, MI

Change the Weather History Date:

Friday, March 29, 2013

  Actual Average Record
Temperature  
Mean Temperature 36 °F -  
Max Temperature 42 °F 36 °F 53 °F (2005)
Min Temperature 30 °F 24 °F 15 °F (2008)
Degree Days  
Heating Degree Days 30    
Moisture  
Dew Point 21 °F    
Average Humidity 57    
Maximum Humidity 73    
Minimum Humidity 38    
Precipitation  
Precipitation 0.00 in - - ()
Sea Level Pressure  
Sea Level Pressure 30.24 in    
Wind  
Wind Speed 7 mph (NW)    
Max Wind Speed 15 mph    
Max Gust Speed 16 mph    
Averages and records for this station are not official NWS values.
T = Trace of Precipitation, MM = Missing Value Source: NWS Daily Summary

Daily Weather History Graph

Daily Weather History Graph

Search for Another Location

Airport:

Trip Planner

Search our weather history database for the weather conditions in past years. The results will help you decide how hot, cold, wet, or windy it might be!

Date:

Astronomy

Mar. 29, 2013 Rise Set
Actual Time 7:35 AM EDT 8:17 PM EDT
Civil Twilight 7:04 AM EDT 8:48 PM EDT
Nautical Twilight 6:28 AM EDT 9:25 PM EDT
Astronomical Twilight 5:49 AM EDT 10:04 PM EDT
Moon 11:31 PM EDT (3/29) 8:32 AM EDT (3/29)
Length of Visible Light 13h 43m
Length of Day
12h 41m
Waning Gibbous, 93% of the Moon is Illuminated
Mar 29
Waning Gibbous
Apr 3
Last Quarter
Apr 10
New
Apr 18
First Quarter
Apr 25
Full

Hourly Weather History & Observations

Time (EDT) Temp. Windchill Dew Point Humidity Pressure Visibility Wind Dir Wind Speed Gust Speed Precip Events Conditions
12:51 AM 30.0 °F 26.5 °F 17.1 °F 59% 30.29 in - Variable 3.5 mph - N/A   Unknown
1:51 AM 30.9 °F 27.5 °F 17.1 °F 57% 30.29 in - WNW 3.5 mph - N/A   Unknown
2:51 AM 32.0 °F 26.4 °F 16.0 °F 52% 30.29 in - WNW 5.8 mph - N/A   Unknown
3:51 AM 32.0 °F 25.6 °F 15.1 °F 50% 30.28 in - WNW 6.9 mph - N/A   Unknown
4:51 AM 30.9 °F 25.2 °F 15.1 °F 52% 30.28 in - WNW 5.8 mph - N/A   Unknown
5:51 AM 32.0 °F 27.5 °F 14.0 °F 48% 30.27 in - WNW 4.6 mph - N/A   Unknown
6:51 AM 33.1 °F 26.9 °F 14.0 °F 46% 30.27 in - WNW 6.9 mph - N/A   Unknown
7:51 AM 34.0 °F 27.2 °F 15.1 °F 46% 30.27 in - WNW 8.1 mph - N/A   Unknown
8:51 AM 37.9 °F 32.7 °F 15.1 °F 39% 30.28 in - Variable 6.9 mph - N/A   Unknown
9:51 AM 41.0 °F 35.2 °F 17.1 °F 38% 30.28 in - NNW 9.2 mph 16.1 mph N/A   Unknown
10:51 AM 41.0 °F 34.3 °F 19.9 °F 43% 30.27 in - North 11.5 mph - N/A   Unknown
11:51 AM 39.9 °F 32.5 °F 23.0 °F 51% 30.27 in - North 12.7 mph - N/A   Unknown
12:51 PM 39.0 °F 31.4 °F 25.0 °F 57% 30.27 in - North 12.7 mph - N/A   Unknown
1:51 PM 37.9 °F 29.6 °F 28.0 °F 68% 30.26 in - North 13.8 mph - N/A   Unknown
2:51 PM 37.0 °F 28.1 °F 28.9 °F 73% 30.25 in - North 15.0 mph - N/A   Unknown
3:51 PM 37.9 °F 29.6 °F 28.0 °F 68% 30.22 in - North 13.8 mph - N/A   Unknown
4:51 PM 37.9 °F 31.5 °F 28.9 °F 70% 30.21 in - North 9.2 mph - N/A   Unknown
5:51 PM 37.9 °F 34.4 °F 28.9 °F 70% 30.20 in - North 4.6 mph - N/A   Unknown
6:51 PM 37.9 °F 35.5 °F 28.9 °F 70% 30.19 in - ENE 3.5 mph - N/A   Unknown
7:51 PM 39.0 °F - 21.9 °F 50% 30.18 in - Calm Calm - N/A   Unknown
8:51 PM 34.0 °F 28.8 °F 21.0 °F 59% 30.17 in - WSW 5.8 mph - N/A   Unknown
9:51 PM 33.1 °F 25.5 °F 23.0 °F 66% 30.16 in - WSW 9.2 mph - N/A   Unknown
10:51 PM 33.1 °F 24.4 °F 23.0 °F 66% 30.15 in - SW 11.5 mph - N/A   Unknown
11:51 PM 34.0 °F 26.0 °F 23.0 °F 64% 30.14 in - WSW 10.4 mph - N/A   Unknown